Location: Camp at the Woods
(43.2055°N, 93.0905°W)
Time: 08:53:35
(UTC+00:00)

BlueWalker 3 - Pass Details

Date: 21 April 2024
Orbit: 482 x 494 km, 53.2° (Epoch: 22 May)

Event Time Altitude Azimuth Distance (km) Brightness Sun altitude
Rises 05:19:31 0° 303° (WNW) 2,584 6.2 -33.5°
Reaches altitude 10° 05:22:09 10° 321° (NW) 1,702 5.3 -33.6°
Enters shadow 05:22:45 13° 328° (NNW) 1,536 5.1 -33.7°
